29/04/2024 17:45:00,0.721
29/04/2024 18:00:00,0.726
29/04/2024 18:15:00,0.731
29/04/2024 18:30:00,0.739
29/04/2024 18:45:00,0.753
29/04/2024 19:00:00,0.77
29/04/2024 19:15:00,0.783
29/04/2024 19:30:00,0.795
29/04/2024 19:45:00,0.806
29/04/2024 20:00:00,0.816
29/04/2024 20:15:00,0.824
29/04/2024 20:30:00,0.832
29/04/2024 20:45:00,0.839
29/04/2024 21:00:00,0.847
29/04/2024 21:15:00,0.854
29/04/2024 21:30:00,0.864
29/04/2024 21:45:00,0.877
29/04/2024 22:00:00,0.89
29/04/2024 22:15:00,0.901
29/04/2024 22:30:00,0.908
29/04/2024 22:45:00,0.912
29/04/2024 23:00:00,0.913
29/04/2024 23:15:00,0.913
29/04/2024 23:30:00,0.912
29/04/2024 23:45:00,0.91
30/04/2024 00:00:00,0.908
30/04/2024 00:15:00,0.906
30/04/2024 00:30:00,0.903
30/04/2024 00:45:00,0.901
30/04/2024 01:00:00,0.899
30/04/2024 01:15:00,0.898
30/04/2024 01:30:00,0.896
30/04/2024 01:45:00,0.895
30/04/2024 02:00:00,0.893
30/04/2024 02:15:00,0.892
30/04/2024 02:30:00,0.891
30/04/2024 02:45:00,0.891
30/04/2024 03:00:00,0.894
30/04/2024 03:15:00,0.898
30/04/2024 03:30:00,0.899
30/04/2024 03:45:00,0.898
30/04/2024 04:00:00,0.896
30/04/2024 04:15:00,0.894
30/04/2024 04:30:00,0.891
30/04/2024 04:45:00,0.889
30/04/2024 05:00:00,0.886
30/04/2024 05:15:00,0.884
30/04/2024 05:30:00,0.882
30/04/2024 05:45:00,0.88
30/04/2024 06:00:00,0.877
30/04/2024 06:15:00,0.874
30/04/2024 06:30:00,0.871
30/04/2024 06:45:00,0.868
30/04/2024 07:00:00,0.865
30/04/2024 07:15:00,0.862
30/04/2024 07:30:00,0.859
30/04/2024 07:45:00,0.856
30/04/2024 08:00:00,0.853
30/04/2024 08:15:00,0.85
30/04/2024 08:30:00,0.848
30/04/2024 08:45:00,0.846
30/04/2024 09:00:00,0.844
30/04/2024 09:15:00,0.841
30/04/2024 09:30:00,0.839
30/04/2024 09:45:00,0.836
30/04/2024 10:00:00,0.834
30/04/2024 10:15:00,0.833
30/04/2024 10:30:00,0.831
30/04/2024 10:45:00,0.828
30/04/2024 11:00:00,0.827
30/04/2024 11:15:00,0.826
30/04/2024 11:30:00,0.824
30/04/2024 11:45:00,0.823
30/04/2024 12:00:00,0.823
30/04/2024 12:15:00,0.822
30/04/2024 12:30:00,0.821
30/04/2024 12:45:00,0.821
30/04/2024 13:00:00,0.821
30/04/2024 13:15:00,0.821
30/04/2024 13:30:00,0.82
30/04/2024 13:45:00,0.819
30/04/2024 14:00:00,0.82
30/04/2024 14:15:00,0.821
30/04/2024 14:30:00,0.821
30/04/2024 14:45:00,0.821
30/04/2024 15:00:00,0.821
30/04/2024 15:15:00,0.821
30/04/2024 15:30:00,0.822
30/04/2024 15:45:00,0.822
30/04/2024 16:00:00,0.822
30/04/2024 16:15:00,0.822
30/04/2024 16:30:00,0.821
30/04/2024 16:45:00,0.82
30/04/2024 17:00:00,0.819
30/04/2024 17:15:00,0.818
30/04/2024 17:30:00,0.817
30/04/2024 17:45:00,0.816
30/04/2024 18:00:00,0.815
30/04/2024 18:15:00,0.815
30/04/2024 18:30:00,0.814
30/04/2024 18:45:00,0.813
30/04/2024 19:00:00,0.812
30/04/2024 19:15:00,0.812
30/04/2024 19:30:00,0.811
30/04/2024 19:45:00,0.811
30/04/2024 20:00:00,0.81
30/04/2024 20:15:00,0.81
30/04/2024 20:30:00,0.809
30/04/2024 20:45:00,0.808
30/04/2024 21:00:00,0.808
30/04/2024 21:15:00,0.807
30/04/2024 21:30:00,0.806
30/04/2024 21:45:00,0.806
30/04/2024 22:00:00,0.806
30/04/2024 22:15:00,0.805
30/04/2024 22:30:00,0.804
30/04/2024 22:45:00,0.804
30/04/2024 23:00:00,0.803
30/04/2024 23:15:00,0.803
30/04/2024 23:30:00,0.802
30/04/2024 23:45:00,0.802
01/05/2024 00:00:00,0.801
01/05/2024 00:15:00,0.8
01/05/2024 00:30:00,0.8
01/05/2024 00:45:00,0.799
01/05/2024 01:00:00,0.798
01/05/2024 01:15:00,0.798
01/05/2024 01:30:00,0.798
01/05/2024 01:45:00,0.797
01/05/2024 02:00:00,0.796
01/05/2024 02:15:00,0.796
01/05/2024 02:30:00,0.795
01/05/2024 02:45:00,0.795
01/05/2024 03:00:00,0.795
01/05/2024 03:15:00,0.794
01/05/2024 03:30:00,0.794
01/05/2024 03:45:00,0.793
01/05/2024 04:00:00,0.793
01/05/2024 04:15:00,0.792
01/05/2024 04:30:00,0.792
01/05/2024 04:45:00,0.791
01/05/2024 05:00:00,0.791
01/05/2024 05:15:00,0.79
01/05/2024 05:30:00,0.79
01/05/2024 05:45:00,0.789
01/05/2024 06:00:00,0.789
01/05/2024 06:15:00,0.788
01/05/2024 06:30:00,0.788
01/05/2024 06:45:00,0.787
01/05/2024 07:00:00,0.786
01/05/2024 07:15:00,0.786
01/05/2024 07:30:00,0.786
01/05/2024 07:45:00,0.785
01/05/2024 08:00:00,0.785
01/05/2024 08:15:00,0.784
01/05/2024 08:30:00,0.784
01/05/2024 08:45:00,0.784
01/05/2024 09:00:00,0.783
01/05/2024 09:15:00,0.783
01/05/2024 09:30:00,0.782
01/05/2024 09:45:00,0.782
01/05/2024 10:00:00,0.782
01/05/2024 10:15:00,0.781
01/05/2024 10:30:00,0.781
01/05/2024 10:45:00,0.78
01/05/2024 11:00:00,0.78
01/05/2024 11:15:00,0.78
01/05/2024 11:30:00,0.779
01/05/2024 11:45:00,0.778
01/05/2024 12:00:00,0.778
01/05/2024 12:15:00,0.778
01/05/2024 12:30:00,0.777
01/05/2024 12:45:00,0.777
01/05/2024 13:00:00,0.777
01/05/2024 13:15:00,0.776
01/05/2024 13:30:00,0.776
01/05/2024 13:45:00,0.776
01/05/2024 14:00:00,0.775
01/05/2024 14:15:00,0.775
01/05/2024 14:30:00,0.775
01/05/2024 14:45:00,0.775
01/05/2024 15:00:00,0.775
01/05/2024 15:15:00,0.775
01/05/2024 15:30:00,0.775
01/05/2024 15:45:00,0.775
01/05/2024 16:00:00,0.775
01/05/2024 16:15:00,0.776
01/05/2024 16:30:00,0.776
01/05/2024 16:45:00,0.777
01/05/2024 17:00:00,0.777
01/05/2024 17:15:00,0.778
01/05/2024 17:30:00,0.778
01/05/2024 17:45:00,0.779
01/05/2024 18:00:00,0.779
01/05/2024 18:15:00,0.779
01/05/2024 18:30:00,0.78
01/05/2024 18:45:00,0.78
01/05/2024 19:00:00,0.781
01/05/2024 19:15:00,0.781
01/05/2024 19:30:00,0.782
01/05/2024 19:45:00,0.782
01/05/2024 20:00:00,0.782
01/05/2024 20:15:00,0.782
01/05/2024 20:30:00,0.782
01/05/2024 20:45:00,0.782
01/05/2024 21:00:00,0.783
01/05/2024 21:15:00,0.782
01/05/2024 21:30:00,0.782
01/05/2024 21:45:00,0.782
01/05/2024 22:00:00,0.782
01/05/2024 22:15:00,0.782
01/05/2024 22:30:00,0.782
01/05/2024 22:45:00,0.782
01/05/2024 23:00:00,0.782
01/05/2024 23:15:00,0.781
01/05/2024 23:30:00,0.781
01/05/2024 23:45:00,0.781
02/05/2024 00:00:00,0.781
02/05/2024 00:15:00,0.78
02/05/2024 00:30:00,0.78
02/05/2024 00:45:00,0.78
02/05/2024 01:00:00,0.78
02/05/2024 01:15:00,0.78
02/05/2024 01:30:00,0.78
02/05/2024 01:45:00,0.78
02/05/2024 02:00:00,0.78
02/05/2024 02:15:00,0.78
02/05/2024 02:30:00,0.78
02/05/2024 02:45:00,0.78
02/05/2024 03:00:00,0.78
02/05/2024 03:15:00,0.779
02/05/2024 03:30:00,0.779
02/05/2024 03:45:00,0.778
02/05/2024 04:00:00,0.778
02/05/2024 04:15:00,0.778
02/05/2024 04:30:00,0.778
02/05/2024 04:45:00,0.778
02/05/2024 05:00:00,0.777
02/05/2024 05:15:00,0.777
02/05/2024 05:30:00,0.777
02/05/2024 05:45:00,0.776
02/05/2024 06:00:00,0.776
02/05/2024 06:15:00,0.776
02/05/2024 06:30:00,0.775
02/05/2024 06:45:00,0.775
02/05/2024 07:00:00,0.775
02/05/2024 07:15:00,0.774
02/05/2024 07:30:00,0.774
02/05/2024 07:45:00,0.774
02/05/2024 08:00:00,0.774
02/05/2024 08:15:00,0.773
02/05/2024 08:30:00,0.773
02/05/2024 08:45:00,0.772
02/05/2024 09:00:00,0.772
02/05/2024 09:15:00,0.772
02/05/2024 09:30:00,0.772
02/05/2024 09:45:00,0.771
02/05/2024 10:00:00,0.771
02/05/2024 10:15:00,0.77
02/05/2024 10:30:00,0.77
02/05/2024 10:45:00,0.77
02/05/2024 11:00:00,0.77
02/05/2024 11:15:00,0.769
02/05/2024 11:30:00,0.769
02/05/2024 11:45:00,0.769
02/05/2024 12:00:00,0.768
02/05/2024 12:15:00,0.769
02/05/2024 12:30:00,0.769
02/05/2024 12:45:00,0.768
02/05/2024 13:00:00,0.769
02/05/2024 13:15:00,0.769
02/05/2024 13:30:00,0.769
02/05/2024 13:45:00,0.769
02/05/2024 14:00:00,0.769
02/05/2024 14:15:00,0.769
02/05/2024 14:30:00,0.771
02/05/2024 14:45:00,0.771
02/05/2024 15:00:00,0.772
02/05/2024 15:15:00,0.773
02/05/2024 15:30:00,0.775
02/05/2024 15:45:00,0.776
02/05/2024 16:00:00,0.777
02/05/2024 16:15:00,0.779
02/05/2024 16:30:00,0.78
02/05/2024 16:45:00,0.782
02/05/2024 17:00:00,0.782
02/05/2024 17:15:00,0.784
02/05/2024 17:30:00,0.785
02/05/2024 17:45:00,0.787
02/05/2024 18:00:00,0.789
02/05/2024 18:15:00,0.79
02/05/2024 18:30:00,0.79
02/05/2024 18:45:00,0.791
02/05/2024 19:00:00,0.792
02/05/2024 19:15:00,0.793
02/05/2024 19:30:00,0.793
02/05/2024 19:45:00,0.794
02/05/2024 20:00:00,0.795
02/05/2024 20:15:00,0.795
02/05/2024 20:30:00,0.796
02/05/2024 20:45:00,0.796
02/05/2024 21:00:00,0.796
02/05/2024 21:15:00,0.795
02/05/2024 21:30:00,0.795
02/05/2024 21:45:00,0.795
02/05/2024 22:00:00,0.795
02/05/2024 22:15:00,0.794
02/05/2024 22:30:00,0.794
02/05/2024 22:45:00,0.794
02/05/2024 23:00:00,0.794
02/05/2024 23:15:00,0.793
02/05/2024 23:30:00,0.793
02/05/2024 23:45:00,0.792
03/05/2024 00:00:00,0.792
03/05/2024 00:15:00,0.791
03/05/2024 00:30:00,0.791
03/05/2024 00:45:00,0.79
03/05/2024 01:00:00,0.79
03/05/2024 01:15:00,0.789
03/05/2024 01:30:00,0.789
03/05/2024 01:45:00,0.788
03/05/2024 02:00:00,0.787
03/05/2024 02:15:00,0.786
03/05/2024 02:30:00,0.786
03/05/2024 02:45:00,0.785
03/05/2024 03:00:00,0.784
03/05/2024 03:15:00,0.783
03/05/2024 03:30:00,0.782
03/05/2024 03:45:00,0.782
03/05/2024 04:00:00,0.781
03/05/2024 04:15:00,0.78
03/05/2024 04:30:00,0.779
03/05/2024 04:45:00,0.778
03/05/2024 05:00:00,0.777
03/05/2024 05:15:00,0.777
03/05/2024 05:30:00,0.776
03/05/2024 05:45:00,0.775
03/05/2024 06:00:00,0.775
03/05/2024 06:15:00,0.774
03/05/2024 06:30:00,0.773
03/05/2024 06:45:00,0.773
03/05/2024 07:00:00,0.772
03/05/2024 07:15:00,0.772
03/05/2024 07:30:00,0.771
03/05/2024 07:45:00,0.77
03/05/2024 08:00:00,0.77
03/05/2024 08:15:00,0.769
03/05/2024 08:30:00,0.769
03/05/2024 08:45:00,0.768
03/05/2024 09:00:00,0.768
03/05/2024 09:15:00,0.768
03/05/2024 09:30:00,0.768
03/05/2024 09:45:00,0.767
03/05/2024 10:00:00,0.766
03/05/2024 10:15:00,0.766
03/05/2024 10:30:00,0.765
03/05/2024 10:45:00,0.765
03/05/2024 11:00:00,0.764
03/05/2024 11:15:00,0.764
03/05/2024 11:30:00,0.764
03/05/2024 11:45:00,0.763
03/05/2024 12:00:00,0.763
03/05/2024 12:15:00,0.762
03/05/2024 12:30:00,0.762
03/05/2024 12:45:00,0.762
03/05/2024 13:00:00,0.761
03/05/2024 13:15:00,0.761
03/05/2024 13:30:00,0.761
03/05/2024 13:45:00,0.761
03/05/2024 14:00:00,0.761
03/05/2024 14:15:00,0.761
03/05/2024 14:30:00,0.761
03/05/2024 14:45:00,0.761
03/05/2024 15:00:00,0.761
03/05/2024 15:15:00,0.762
03/05/2024 15:30:00,0.763
03/05/2024 15:45:00,0.764
03/05/2024 16:00:00,0.764
03/05/2024 16:15:00,0.764
03/05/2024 16:30:00,0.765
03/05/2024 16:45:00,0.765
03/05/2024 17:00:00,0.766
03/05/2024 17:15:00,0.766
03/05/2024 17:30:00,0.766
03/05/2024 17:45:00,0.766
03/05/2024 18:00:00,0.766
03/05/2024 18:15:00,0.767
03/05/2024 18:30:00,0.767
03/05/2024 18:45:00,0.767
03/05/2024 19:00:00,0.768
03/05/2024 19:15:00,0.769
03/05/2024 19:30:00,0.769
03/05/2024 19:45:00,0.769
03/05/2024 20:00:00,0.769
03/05/2024 20:15:00,0.77
03/05/2024 20:30:00,0.77
03/05/2024 20:45:00,0.77
03/05/2024 21:00:00,0.769
03/05/2024 21:15:00,0.769
03/05/2024 21:30:00,0.769
03/05/2024 21:45:00,0.769
03/05/2024 22:00:00,0.769
03/05/2024 22:15:00,0.769
03/05/2024 22:30:00,0.768
03/05/2024 22:45:00,0.768
03/05/2024 23:00:00,0.768
03/05/2024 23:15:00,0.767
03/05/2024 23:30:00,0.767
03/05/2024 23:45:00,0.766
04/05/2024 00:00:00,0.766
04/05/2024 00:15:00,0.765
04/05/2024 00:30:00,0.764
04/05/2024 00:45:00,0.763
04/05/2024 01:00:00,0.763
04/05/2024 01:15:00,0.762
04/05/2024 01:30:00,0.761
04/05/2024 01:45:00,0.761
04/05/2024 02:00:00,0.76
04/05/2024 02:15:00,0.759
04/05/2024 02:30:00,0.759
04/05/2024 02:45:00,0.758
04/05/2024 03:00:00,0.757
04/05/2024 03:15:00,0.757
04/05/2024 03:30:00,0.756
04/05/2024 03:45:00,0.755
04/05/2024 04:00:00,0.755
04/05/2024 04:15:00,0.754
04/05/2024 04:30:00,0.754
04/05/2024 04:45:00,0.753
04/05/2024 05:00:00,0.752
04/05/2024 05:15:00,0.752
04/05/2024 05:30:00,0.751
04/05/2024 05:45:00,0.751
04/05/2024 06:00:00,0.75
04/05/2024 06:15:00,0.749
04/05/2024 06:30:00,0.749
04/05/2024 06:45:00,0.748
04/05/2024 07:00:00,0.748
04/05/2024 07:15:00,0.748
04/05/2024 07:30:00,0.747
04/05/2024 07:45:00,0.747
04/05/2024 08:00:00,0.746
04/05/2024 08:15:00,0.746
04/05/2024 08:30:00,0.745
04/05/2024 08:45:00,0.745
04/05/2024 09:00:00,0.744
04/05/2024 09:15:00,0.744
04/05/2024 09:30:00,0.743
04/05/2024 09:45:00,0.743
04/05/2024 10:00:00,0.743
04/05/2024 10:15:00,0.742
04/05/2024 10:30:00,0.742
04/05/2024 10:45:00,0.742
04/05/2024 11:00:00,0.741
04/05/2024 11:15:00,0.741
04/05/2024 11:30:00,0.741
04/05/2024 11:45:00,0.74
04/05/2024 12:00:00,0.74
04/05/2024 12:15:00,0.74
04/05/2024 12:30:00,0.739
04/05/2024 12:45:00,0.739
04/05/2024 13:00:00,0.739
04/05/2024 13:15:00,0.739
04/05/2024 13:30:00,0.738
04/05/2024 13:45:00,0.738
04/05/2024 14:00:00,0.738
04/05/2024 14:15:00,0.738
04/05/2024 14:30:00,0.737
04/05/2024 14:45:00,0.737
04/05/2024 15:00:00,0.737
04/05/2024 15:15:00,0.736
